Total_Precipitation_Accumulation
0.32 0.21 0.36 0.39 0.35 0.31 0.39 0.46 0.43 0.36 0.38 0.35 0.26 0.21 0.20 0.20 0.20 0.17 0.13 0.10 0.10 0.11 0.13 0.16 0.20 0.26 0.24 0.23 0.27 0.35 0.37 0.34 0.31 0.30 0.37 0.42 0.43 0.47 0.55 0.61 0.77 0.87 0.59
0.27 0.20 0.39 0.44 0.39 0.33 0.33 0.38 0.46 0.41 0.43 0.37 0.29 0.22 0.20 0.19 0.17 0.12 0.10 0.09 0.09 0.10 0.12 0.16 0.21 0.23 0.25 0.29 0.34 0.39 0.35 0.28 0.24 0.29 0.47 0.57 0.48 0.45 0.46 0.51 0.78 0.86 0.60
0.28 0.22 0.30 0.46 0.46 0.40 0.40 0.40 0.46 0.47 0.52 0.44 0.37 0.28 0.22 0.18 0.18 0.14 0.11 0.12 0.12 0.11 0.11 0.14 0.25 0.26 0.25 0.35 0.38 0.38 0.35 0.24 0.22 0.30 0.61 1.05 0.70 0.45 0.42 0.51 0.73 0.59 0.55
0.38 0.32 0.35 0.50 0.47 0.46 0.46 0.51 0.57 0.57 0.64 0.60 0.40 0.26 0.18 0.18 0.25 0.22 0.20 0.28 0.16 0.08 0.08 0.12 0.22 0.27 0.26 0.30 0.36 0.35 0.34 0.33 0.35 0.40 0.74 1.03 0.98 0.60 0.60 0.72 0.74 0.61 0.64
0.47 0.43 0.55 0.66 0.59 0.56 0.53 0.64 0.71 0.71 0.74 0.64 0.38 0.20 0.17 0.22 0.31 0.32 0.34 0.35 0.14 0.08 0.07 0.10 0.17 0.24 0.23 0.23 0.25 0.26 0.29 0.36 0.51 0.61 0.81 0.98 1.02 0.72 0.70 0.76 0.73 0.64 0.71
0.53 0.47 0.59 0.75 0.71 0.65 0.61 0.72 0.78 0.80 0.81 0.70 0.43 0.29 0.27 0.32 0.33 0.33 0.39 0.27 0.16 0.12 0.10 0.10 0.14 0.17 0.17 0.19 0.23 0.23 0.30 0.37 0.46 0.63 0.82 0.99 0.93 0.65 0.63 0.68 0.71 0.81 0.79
0.52 0.45 0.50 0.67 0.73 0.73 0.72 0.84 0.89 0.87 0.87 0.76 0.55 0.45 0.39 0.37 0.36 0.36 0.39 0.24 0.17 0.12 0.11 0.11 0.13 0.14 0.16 0.18 0.20 0.21 0.24 0.26 0.34 0.49 0.67 0.96 0.77 0.55 0.54 0.64 0.69 0.76 0.74
0.68 0.54 0.45 0.55 0.65 0.70 0.74 0.86 0.91 0.89 0.85 0.76 0.59 0.50 0.48 0.45 0.39 0.42 0.41 0.28 0.21 0.16 0.13 0.13 0.14 0.16 0.16 0.16 0.17 0.20 0.23 0.22 0.26 0.38 0.52 0.74 0.66 0.57 0.51 0.63 0.76 0.71 0.70
0.85 0.74 0.57 0.57 0.63 0.74 0.86 0.90 0.92 0.90 0.87 0.79 0.64 0.54 0.49 0.46 0.40 0.40 0.37 0.27 0.22 0.20 0.18 0.15 0.14 0.14 0.12 0.15 0.16 0.19 0.21 0.20 0.26 0.34 0.40 0.59 0.57 0.52 0.47 0.58 0.74 0.79 0.75
0.99 0.87 0.71 0.64 0.65 0.70 0.74 0.85 0.95 0.98 0.96 0.92 0.77 0.64 0.57 0.48 0.39 0.39 0.32 0.27 0.27 0.27 0.27 0.25 0.19 0.15 0.13 0.15 0.14 0.16 0.18 0.17 0.28 0.34 0.40 0.43 0.47 0.47 0.43 0.41 0.48 0.53 0.55
0.93 0.89 0.92 0.89 0.86 0.84 0.77 0.81 0.97 1.06 1.07 0.96 0.88 0.79 0.68 0.47 0.39 0.40 0.34 0.40 0.42 0.44 0.43 0.37 0.29 0.21 0.17 0.15 0.16 0.17 0.15 0.18 0.30 0.33 0.37 0.36 0.44 0.45 0.39 0.31 0.33 0.32 0.35
0.69 0.72 0.78 0.84 0.93 0.95 0.85 1.03 1.26 1.15 1.01 0.81 0.84 0.75 0.71 0.64 0.59 0.46 0.45 0.53 0.58 0.58 0.52 0.46 0.39 0.28 0.19 0.12 0.14 0.15 0.11 0.14 0.22 0.23 0.24 0.33 0.41 0.40 0.36 0.32 0.27 0.25 0.24
0.63 0.62 0.63 0.69 0.78 0.87 0.99 1.20 1.51 1.55 1.32 1.13 0.96 0.88 0.84 0.72 0.63 0.55 0.50 0.52 0.53 0.54 0.45 0.43 0.40 0.26 0.18 0.13 0.12 0.11 0.10 0.13 0.16 0.19 0.24 0.35 0.44 0.44 0.36 0.30 0.27 0.27 0.22
0.53 0.57 0.49 0.46 0.58 0.68 0.79 0.91 1.20 1.27 1.21 1.08 0.91 0.83 0.88 0.82 0.71 0.65 0.60 0.62 0.58 0.53 0.57 0.59 0.55 0.44 0.31 0.21 0.19 0.20 0.19 0.15 0.18 0.24 0.30 0.33 0.48 0.51 0.44 0.33 0.28 0.26 0.24
0.56 0.59 0.54 0.45 0.46 0.50 0.55 0.62 0.76 0.92 1.03 1.03 0.98 0.82 0.81 0.79 0.74 0.74 0.68 0.70 0.60 0.56 0.59 0.62 0.58 0.55 0.47 0.36 0.29 0.29 0.30 0.25 0.22 0.25 0.34 0.45 0.64 0.71 0.66 0.50 0.34 0.27 0.28
0.51 0.63 0.62 0.52 0.48 0.50 0.47 0.47 0.48 0.61 0.76 0.92 0.93 0.82 0.83 0.84 0.79 0.83 0.79 0.76 0.72 0.64 0.64 0.77 0.67 0.64 0.60 0.50 0.32 0.31 0.31 0.27 0.22 0.22 0.30 0.51 0.67 0.67 0.76 0.76 0.58 0.42 0.33
0.45 0.50 0.57 0.54 0.56 0.60 0.59 0.59 0.49 0.52 0.59 0.73 0.84 0.83 0.88 0.83 0.76 0.79 0.80 0.75 0.73 0.75 0.73 0.77 0.77 0.73 0.60 0.51 0.39 0.31 0.29 0.26 0.24 0.20 0.17 0.22 0.29 0.42 0.58 0.68 0.69 0.57 0.44
0.47 0.50 0.54 0.56 0.62 0.68 0.73 0.75 0.69 0.74 0.76 0.76 0.90 0.87 0.82 0.84 0.81 0.80 0.84 0.85 0.87 0.90 0.85 0.85 0.87 0.84 0.70 0.61 0.55 0.45 0.33 0.29 0.27 0.25 0.19 0.15 0.16 0.18 0.33 0.42 0.51 0.53 0.53
0.43 0.44 0.48 0.56 0.61 0.64 0.72 0.84 0.97 1.01 1.01 0.96 0.99 0.94 0.84 0.82 0.88 0.97 0.97 1.03 1.01 1.01 1.00 0.96 0.93 0.84 0.77 0.69 0.58 0.51 0.40 0.31 0.29 0.27 0.29 0.24 0.21 0.17 0.18 0.22 0.30 0.30 0.33
0.33 0.36 0.41 0.49 0.65 0.79 0.87 0.92 1.07 1.12 1.19 1.28 1.32 1.20 1.07 1.08 1.19 1.30 1.35 1.29 1.29 1.26 1.22 1.15 1.18 1.06 0.85 0.80 0.73 0.57 0.41 0.35 0.33 0.30 0.31 0.30 0.24 0.21 0.19 0.14 0.15 0.17 0.19
0.22 0.27 0.33 0.39 0.55 0.69 0.79 0.91 1.10 1.27 1.45 1.60 1.72 1.62 1.46 1.42 1.57 1.64 1.57 1.62 1.63 1.48 1.46 1.50 1.53 1.45 1.16 0.96 0.95 0.78 0.55 0.37 0.36 0.34 0.32 0.30 0.28 0.29 0.30 0.22 0.13 0.13 0.13
0.12 0.17 0.23 0.30 0.41 0.55 0.70 0.93 1.15 1.44 1.53 1.62 1.75 1.79 1.73 1.66 1.78 1.78 1.86 1.90 1.91 1.88 1.83 1.69 1.72 1.79 1.53 1.25 1.25 1.42 1.04 0.70 0.41 0.33 0.35 0.31 0.29 0.33 0.35 0.34 0.26 0.18 0.13
0.08 0.10 0.17 0.28 0.44 0.65 0.87 1.18 1.46 1.71 1.79 1.83 1.76 1.83 1.91 1.96 2.01 2.03 2.07 2.10 2.06 1.90 1.87 1.94 2.01 2.29 2.05 1.66 1.45 1.59 1.30 1.01 0.75 0.43 0.39 0.42 0.40 0.38 0.42 0.48 0.42 0.34 0.27
0.11 0.15 0.24 0.40 0.61 0.88 1.22 1.56 1.79 2.02 2.11 1.95 1.91 1.95 1.96 1.90 1.93 2.03 2.04 2.02 1.98 1.89 1.94 2.00 2.00 2.28 2.41 2.07 1.77 1.44 1.14 1.03 1.03 0.77 0.51 0.47 0.51 0.43 0.42 0.46 0.45 0.45 0.40
0.24 0.32 0.47 0.71 1.00 1.28 1.50 1.68 1.89 2.02 2.03 2.00 1.96 1.96 1.89 1.85 1.80 1.82 1.82 1.89 1.92 1.95 1.99 2.12 2.18 2.36 2.36 2.30 2.06 1.88 1.69 1.35 1.00 0.95 0.88 0.66 0.60 0.49 0.45 0.49 0.53 0.52 0.49
0.40 0.54 0.72 0.90 1.18 1.35 1.46 1.59 1.78 1.92 1.96 1.97 1.95 1.96 1.95 1.91 1.79 1.71 1.69 1.73 1.84 1.98 2.02 2.06 2.15 2.35 2.44 2.50 2.35 2.07 1.95 1.76 1.45 1.29 1.03 0.89 0.83 0.67 0.58 0.54 0.55 0.54 0.54